contact:dominique.lefevre@mio.osupytheas.fr, maurice.libes@osupytheas.fr, didier.mallarino@osupytheas.fr
Project:EMSO http://www.emso-fr.org/EMSO-France
Depth: 2436.0 m
Title:EMSO Ligure Ouest : Data MII capteur MICROCAT
DateTime_Computer,Latitude,Longitude,Temperature,Conductivity,Pressure,DateTime_Instrument
DateTime_Computer,Latitude,Longitude,degC,S m-1,dbar,DateTime_Instrument
2019-09-16T00:02:42Z,42.805,6.029,13.2960,4.59952,2469.9,2019-9-16T02:03:06Z
2019-09-16T00:05:46Z,42.805,6.029,13.2954,4.59954,2469.83,2019-9-16T02:06:09Z
2019-09-16T00:08:49Z,42.805,6.029,13.2955,4.59953,2469.853,2019-9-16T02:09:12Z
2019-09-16T00:11:52Z,42.805,6.029,13.2952,4.59957,2469.867,2019-9-16T02:12:15Z
2019-09-16T00:14:55Z,42.805,6.029,13.2953,4.59956,2469.876,2019-9-16T02:15:18Z
2019-09-16T00:17:58Z,42.805,6.029,13.2955,4.59953,2469.876,2019-9-16T02:18:21Z
2019-09-16T00:21:02Z,42.805,6.029,13.2956,4.59955,2469.867,2019-9-16T02:21:25Z
2019-09-16T00:24:05Z,42.805,6.029,13.2955,4.59953,2469.876,2019-9-16T02:24:28Z
2019-09-16T00:27:08Z,42.805,6.029,13.2955,4.59953,2469.9,2019-9-16T02:27:31Z
2019-09-16T00:30:11Z,42.805,6.029,13.2954,4.59952,2469.867,2019-9-16T02:30:34Z
2019-09-16T00:33:14Z,42.805,6.029,13.2956,4.59951,2469.876,2019-9-16T02:33:37Z
2019-09-16T00:36:18Z,42.805,6.029,13.2953,4.59958,2469.853,2019-9-16T02:36:41Z
2019-09-16T00:39:21Z,42.805,6.029,13.2953,4.59952,2469.853,2019-9-16T02:39:44Z
2019-09-16T00:42:24Z,42.805,6.029,13.2954,4.59953,2469.844,2019-9-16T02:42:47Z
2019-09-16T00:45:27Z,42.805,6.029,13.2956,4.59953,2469.844,2019-9-16T02:45:50Z
2019-09-16T00:48:30Z,42.805,6.029,13.2952,4.59952,2469.83,2019-9-16T02:48:53Z
2019-09-16T00:51:34Z,42.805,6.029,13.2957,4.59955,2469.844,2019-9-16T02:51:57Z
2019-09-16T00:54:37Z,42.805,6.029,13.2954,4.59952,2469.867,2019-9-16T02:55:00Z
2019-09-16T00:57:40Z,42.805,6.029,13.2953,4.59955,2469.867,2019-9-16T02:58:03Z
2019-09-16T01:00:43Z,42.805,6.029,13.2954,4.59955,2469.867,2019-9-16T03:01:06Z
2019-09-16T01:03:46Z,42.805,6.029,13.2957,4.59960,2469.844,2019-9-16T03:04:09Z
2019-09-16T01:06:49Z,42.805,6.029,13.2958,4.59954,2469.806,2019-9-16T03:07:13Z
2019-09-16T01:09:53Z,42.805,6.029,13.2955,4.59955,2469.816,2019-9-16T03:10:16Z
2019-09-16T01:12:56Z,42.805,6.029,13.2952,4.59952,2469.806,2019-9-16T03:13:19Z
2019-09-16T01:15:59Z,42.805,6.029,13.2954,4.59952,2469.83,2019-9-16T03:16:22Z
2019-09-16T01:19:02Z,42.805,6.029,13.2955,4.59953,2469.806,2019-9-16T03:19:25Z
2019-09-16T01:22:06Z,42.805,6.029,13.2956,4.59956,2469.806,2019-9-16T03:22:29Z
2019-09-16T01:25:09Z,42.805,6.029,13.2952,4.59953,2469.844,2019-9-16T03:25:32Z
2019-09-16T01:28:12Z,42.805,6.029,13.2953,4.59954,2469.83,2019-9-16T03:28:35Z
2019-09-16T01:31:15Z,42.805,6.029,13.2957,4.59953,2469.853,2019-9-16T03:31:38Z
2019-09-16T01:34:18Z,42.805,6.029,13.2957,4.59951,2469.83,2019-9-16T03:34:41Z
2019-09-16T01:37:22Z,42.805,6.029,13.2954,4.59954,2469.783,2019-9-16T03:37:45Z
2019-09-16T01:40:25Z,42.805,6.029,13.2955,4.59954,2469.821,2019-9-16T03:40:48Z
2019-09-16T01:43:28Z,42.805,6.029,13.2953,4.59955,2469.876,2019-9-16T03:43:51Z
2019-09-16T01:46:31Z,42.805,6.029,13.2956,4.59956,2469.83,2019-9-16T03:46:54Z
2019-09-16T01:49:34Z,42.805,6.029,13.2959,4.59953,2469.821,2019-9-16T03:49:58Z
2019-09-16T01:52:38Z,42.805,6.029,13.2953,4.59954,2469.806,2019-9-16T03:53:01Z
2019-09-16T01:55:41Z,42.805,6.029,13.2957,4.59954,2469.821,2019-9-16T03:56:04Z
2019-09-16T01:58:44Z,42.805,6.029,13.2957,4.59956,2469.83,2019-9-16T03:59:07Z
2019-09-16T02:01:47Z,42.805,6.029,13.2956,4.59953,2469.83,2019-9-16T04:02:11Z
2019-09-16T02:04:51Z,42.805,6.029,13.2957,4.59958,2469.773,2019-9-16T04:05:14Z
2019-09-16T02:07:54Z,42.805,6.029,13.2952,4.59953,2469.806,2019-9-16T04:08:17Z
2019-09-16T02:10:57Z,42.805,6.029,13.2955,4.59956,2469.844,2019-9-16T04:11:20Z
2019-09-16T02:14:00Z,42.805,6.029,13.2956,4.59954,2469.806,2019-9-16T04:14:23Z
2019-09-16T02:17:03Z,42.805,6.029,13.2957,4.59953,2469.83,2019-9-16T04:17:26Z
2019-09-16T02:20:06Z,42.805,6.029,13.2957,4.59955,2469.806,2019-9-16T04:20:30Z
2019-09-16T02:23:10Z,42.805,6.029,13.2954,4.59953,2469.821,2019-9-16T04:23:33Z
2019-09-16T02:26:13Z,42.805,6.029,13.2956,4.59955,2469.797,2019-9-16T04:26:36Z
2019-09-16T02:29:16Z,42.805,6.029,13.2954,4.59958,2469.806,2019-9-16T04:29:39Z
2019-09-16T02:32:19Z,42.805,6.029,13.2954,4.59952,2469.806,2019-9-16T04:32:42Z
2019-09-16T02:35:23Z,42.805,6.029,13.2955,4.59956,2469.806,2019-9-16T04:35:46Z
2019-09-16T02:38:26Z,42.805,6.029,13.2953,4.59954,2469.797,2019-9-16T04:38:49Z
2019-09-16T02:41:29Z,42.805,6.029,13.2955,4.59954,2469.783,2019-9-16T04:41:52Z
2019-09-16T02:44:32Z,42.805,6.029,13.2956,4.59957,2469.821,2019-9-16T04:44:55Z
2019-09-16T02:47:35Z,42.805,6.029,13.2954,4.59953,2469.83,2019-9-16T04:47:58Z
2019-09-16T02:50:39Z,42.805,6.029,13.2955,4.59954,2469.783,2019-9-16T04:51:02Z
2019-09-16T02:53:42Z,42.805,6.029,13.2957,4.59955,2469.83,2019-9-16T04:54:05Z
2019-09-16T02:56:45Z,42.805,6.029,13.2956,4.59954,2469.806,2019-9-16T04:57:08Z
2019-09-16T02:59:48Z,42.805,6.029,13.2958,4.59955,2469.821,2019-9-16T05:00:11Z
2019-09-16T03:02:51Z,42.805,6.029,13.2957,4.59953,2469.806,2019-9-16T05:03:14Z
2019-09-16T03:05:54Z,42.805,6.029,13.2959,4.59956,2469.783,2019-9-16T05:06:18Z
2019-09-16T03:08:58Z,42.805,6.029,13.2954,4.59966,2469.783,2019-9-16T05:09:21Z
2019-09-16T03:12:01Z,42.805,6.029,13.2961,4.59955,2469.844,2019-9-16T05:12:24Z
2019-09-16T03:15:04Z,42.805,6.029,13.2956,4.59954,2469.783,2019-9-16T05:15:27Z
2019-09-16T03:18:07Z,42.805,6.029,13.2957,4.59955,2469.783,2019-9-16T05:18:30Z
2019-09-16T03:21:10Z,42.805,6.029,13.2953,4.59959,2469.783,2019-9-16T05:21:34Z
2019-09-16T03:24:14Z,42.805,6.029,13.2958,4.59955,2469.797,2019-9-16T05:24:37Z
2019-09-16T03:27:17Z,42.805,6.029,13.2957,4.59956,2469.783,2019-9-16T05:27:40Z
2019-09-16T03:30:20Z,42.805,6.029,13.2952,4.59956,2469.83,2019-9-16T05:30:43Z
2019-09-16T03:33:24Z,42.805,6.029,13.2952,4.59954,2469.793,2019-9-16T05:33:47Z
2019-09-16T03:36:27Z,42.805,6.029,13.2957,4.59956,2469.821,2019-9-16T05:36:50Z
2019-09-16T03:39:30Z,42.805,6.029,13.2955,4.59955,2469.83,2019-9-16T05:39:53Z
2019-09-16T03:42:33Z,42.805,6.029,13.2955,4.59954,2469.844,2019-9-16T05:42:56Z
2019-09-16T03:45:36Z,42.805,6.029,13.2960,4.59956,2469.797,2019-9-16T05:45:59Z
2019-09-16T03:48:40Z,42.805,6.029,13.2960,4.59956,2469.821,2019-9-16T05:49:03Z
2019-09-16T03:51:43Z,42.805,6.029,13.2958,4.59957,2469.783,2019-9-16T05:52:06Z
2019-09-16T03:54:46Z,42.805,6.029,13.2957,4.59955,2469.821,2019-9-16T05:55:09Z
2019-09-16T03:57:49Z,42.805,6.029,13.2958,4.59955,2469.783,2019-9-16T05:58:12Z
2019-09-16T04:00:52Z,42.805,6.029,13.2956,4.59955,2469.797,2019-9-16T06:01:16Z
2019-09-16T04:03:56Z,42.805,6.029,13.2954,4.59955,2469.821,2019-9-16T06:04:19Z
2019-09-16T04:06:59Z,42.805,6.029,13.2958,4.59956,2469.83,2019-9-16T06:07:22Z
2019-09-16T04:10:02Z,42.805,6.029,13.2957,4.59954,2469.783,2019-9-16T06:10:25Z
2019-09-16T04:13:05Z,42.805,6.029,13.2956,4.59954,2469.83,2019-9-16T06:13:28Z
2019-09-16T04:16:09Z,42.805,6.029,13.2957,4.59954,2469.806,2019-9-16T06:16:32Z
2019-09-16T04:19:12Z,42.805,6.029,13.2952,4.59955,2469.783,2019-9-16T06:19:35Z
2019-09-16T04:22:15Z,42.805,6.029,13.2960,4.59954,2469.797,2019-9-16T06:22:38Z
2019-09-16T04:25:18Z,42.805,6.029,13.2955,4.59954,2469.806,2019-9-16T06:25:41Z
2019-09-16T04:28:21Z,42.805,6.029,13.2957,4.59954,2469.806,2019-9-16T06:28:44Z
2019-09-16T04:31:24Z,42.805,6.029,13.2958,4.59954,2469.821,2019-9-16T06:31:48Z
2019-09-16T04:34:28Z,42.805,6.029,13.2956,4.59954,2469.797,2019-9-16T06:34:51Z
2019-09-16T04:37:31Z,42.805,6.029,13.2957,4.59954,2469.83,2019-9-16T06:37:54Z
2019-09-16T04:40:34Z,42.805,6.029,13.2958,4.59953,2469.844,2019-9-16T06:40:57Z
2019-09-16T04:43:37Z,42.805,6.029,13.2961,4.59954,2469.844,2019-9-16T06:44:00Z
2019-09-16T04:46:40Z,42.805,6.029,13.2956,4.59955,2469.853,2019-9-16T06:47:04Z
2019-09-16T04:49:44Z,42.805,6.029,13.2959,4.59954,2469.853,2019-9-16T06:50:07Z
2019-09-16T04:52:47Z,42.805,6.029,13.2958,4.59957,2469.83,2019-9-16T06:53:10Z
2019-09-16T04:55:50Z,42.805,6.029,13.2958,4.59956,2469.83,2019-9-16T06:56:13Z
2019-09-16T04:58:53Z,42.805,6.029,13.2955,4.59953,2469.853,2019-9-16T06:59:16Z
2019-09-16T05:01:57Z,42.805,6.029,13.2958,4.59954,2469.844,2019-9-16T07:02:20Z
2019-09-16T05:05:00Z,42.805,6.029,13.2954,4.59957,2469.867,2019-9-16T07:05:23Z
2019-09-16T05:08:03Z,42.805,6.029,13.2957,4.59954,2469.876,2019-9-16T07:08:26Z
2019-09-16T05:11:06Z,42.805,6.029,13.2957,4.59955,2469.844,2019-9-16T07:11:29Z
2019-09-16T05:14:09Z,42.805,6.029,13.2953,4.59953,2469.83,2019-9-16T07:14:32Z
2019-09-16T05:17:12Z,42.805,6.029,13.2954,4.59954,2469.853,2019-9-16T07:17:36Z
2019-09-16T05:20:16Z,42.805,6.029,13.2958,4.59953,2469.83,2019-9-16T07:20:39Z
2019-09-16T05:23:19Z,42.805,6.029,13.2957,4.59955,2469.89,2019-9-16T07:23:42Z
2019-09-16T05:26:22Z,42.805,6.029,13.2955,4.59953,2469.89,2019-9-16T07:26:45Z
2019-09-16T05:29:25Z,42.805,6.029,13.2961,4.59956,2469.867,2019-9-16T07:29:48Z
2019-09-16T05:32:28Z,42.805,6.029,13.2959,4.59958,2469.853,2019-9-16T07:32:52Z
2019-09-16T05:35:32Z,42.805,6.029,13.2958,4.59956,2469.863,2019-9-16T07:35:55Z
2019-09-16T05:38:35Z,42.805,6.029,13.2954,4.59954,2469.876,2019-9-16T07:38:58Z
2019-09-16T05:41:38Z,42.805,6.029,13.2959,4.59954,2469.9,2019-9-16T07:42:01Z
2019-09-16T05:44:41Z,42.805,6.029,13.2957,4.59956,2469.853,2019-9-16T07:45:05Z
2019-09-16T05:47:45Z,42.805,6.029,13.2962,4.59954,2469.923,2019-9-16T07:48:08Z
2019-09-16T05:50:48Z,42.805,6.029,13.2958,4.59956,2469.876,2019-9-16T07:51:11Z
2019-09-16T05:53:51Z,42.805,6.029,13.2958,4.59961,2469.876,2019-9-16T07:54:14Z
2019-09-16T05:56:54Z,42.805,6.029,13.2958,4.59955,2469.9,2019-9-16T07:57:17Z
2019-09-16T05:59:57Z,42.805,6.029,13.2957,4.59956,2469.9,2019-9-16T08:00:21Z
2019-09-16T06:03:01Z,42.805,6.029,13.2958,4.59954,2469.89,2019-9-16T08:03:24Z
2019-09-16T06:06:04Z,42.805,6.029,13.2961,4.59955,2469.876,2019-9-16T08:06:27Z
2019-09-16T06:09:07Z,42.805,6.029,13.2957,4.59954,2469.9,2019-9-16T08:09:30Z
2019-09-16T06:12:10Z,42.805,6.029,13.2960,4.59956,2469.886,2019-9-16T08:12:33Z
2019-09-16T06:15:13Z,42.805,6.029,13.2959,4.59954,2469.9,2019-9-16T08:15:37Z
2019-09-16T06:18:17Z,42.805,6.029,13.2958,4.59964,2469.876,2019-9-16T08:18:40Z
2019-09-16T06:21:20Z,42.805,6.029,13.2958,4.59954,2469.9,2019-9-16T08:21:43Z
2019-09-16T06:24:23Z,42.805,6.029,13.2961,4.59955,2469.914,2019-9-16T08:24:46Z
2019-09-16T06:27:26Z,42.805,6.029,13.2960,4.59956,2469.96,2019-9-16T08:27:49Z
2019-09-16T06:30:29Z,42.805,6.029,13.2959,4.59955,2469.923,2019-9-16T08:30:53Z
2019-09-16T06:33:33Z,42.805,6.029,13.2956,4.59956,2469.947,2019-9-16T08:33:56Z
2019-09-16T06:36:36Z,42.805,6.029,13.2960,4.59955,2469.923,2019-9-16T08:36:59Z
2019-09-16T06:39:39Z,42.805,6.029,13.2960,4.59956,2469.923,2019-9-16T08:40:02Z
2019-09-16T06:42:42Z,42.805,6.029,13.2955,4.59957,2469.923,2019-9-16T08:43:05Z
2019-09-16T06:45:45Z,42.805,6.029,13.2959,4.59956,2469.96,2019-9-16T08:46:09Z
2019-09-16T06:48:49Z,42.805,6.029,13.2960,4.59957,2469.937,2019-9-16T08:49:12Z
2019-09-16T06:51:52Z,42.805,6.029,13.2961,4.59956,2469.947,2019-9-16T08:52:15Z
2019-09-16T06:54:55Z,42.805,6.029,13.2954,4.59958,2469.923,2019-9-16T08:55:18Z
2019-09-16T06:57:58Z,42.805,6.029,13.2961,4.59956,2469.937,2019-9-16T08:58:21Z
2019-09-16T07:01:02Z,42.805,6.029,13.2957,4.59956,2469.937,2019-9-16T09:01:25Z
2019-09-16T07:04:05Z,42.805,6.029,13.2958,4.59956,2469.96,2019-9-16T09:04:28Z
2019-09-16T07:07:08Z,42.805,6.029,13.2957,4.59968,2469.937,2019-9-16T09:07:31Z
2019-09-16T07:10:11Z,42.805,6.029,13.2963,4.59956,2469.96,2019-9-16T09:10:34Z
2019-09-16T07:13:14Z,42.805,6.029,13.2958,4.59956,2469.947,2019-9-16T09:13:37Z
2019-09-16T07:16:17Z,42.805,6.029,13.2957,4.59958,2469.947,2019-9-16T09:16:41Z
2019-09-16T07:19:21Z,42.805,6.029,13.2960,4.59964,2469.97,2019-9-16T09:19:44Z
2019-09-16T07:22:24Z,42.805,6.029,13.2958,4.59966,2469.97,2019-9-16T09:22:47Z
2019-09-16T07:25:27Z,42.805,6.029,13.2957,4.59956,2469.947,2019-9-16T09:25:50Z
2019-09-16T07:28:30Z,42.805,6.029,13.2959,4.59960,2469.984,2019-9-16T09:28:53Z
2019-09-16T07:31:33Z,42.805,6.029,13.2958,4.59956,2469.96,2019-9-16T09:31:57Z
2019-09-16T07:34:37Z,42.805,6.029,13.2958,4.59957,2469.984,2019-9-16T09:35:00Z
2019-09-16T07:37:40Z,42.805,6.029,13.2957,4.59958,2469.937,2019-9-16T09:38:03Z
2019-09-16T07:40:43Z,42.805,6.029,13.2961,4.59958,2469.96,2019-9-16T09:41:06Z
2019-09-16T07:43:46Z,42.805,6.029,13.2958,4.59960,2469.937,2019-9-16T09:44:09Z
2019-09-16T07:46:49Z,42.805,6.029,13.2953,4.59958,2469.96,2019-9-16T09:47:12Z
2019-09-16T07:49:53Z,42.805,6.029,13.2958,4.59961,2469.96,2019-9-16T09:50:16Z
2019-09-16T07:52:56Z,42.805,6.029,13.2959,4.59961,2469.937,2019-9-16T09:53:19Z
2019-09-16T07:55:59Z,42.805,6.029,13.2961,4.59961,2469.96,2019-9-16T09:56:22Z
2019-09-16T07:59:02Z,42.805,6.029,13.2957,4.59963,2469.96,2019-9-16T09:59:25Z
2019-09-16T08:02:05Z,42.805,6.029,13.2953,4.59960,2469.96,2019-9-16T10:02:28Z
2019-09-16T08:05:09Z,42.805,6.029,13.2958,4.59957,2469.96,2019-9-16T10:05:32Z
2019-09-16T08:08:12Z,42.805,6.029,13.2961,4.59960,2469.97,2019-9-16T10:08:35Z
2019-09-16T08:11:15Z,42.805,6.029,13.2957,4.59957,2469.923,2019-9-16T10:11:38Z
2019-09-16T08:14:18Z,42.805,6.029,13.2958,4.59960,2469.947,2019-9-16T10:14:41Z
2019-09-16T08:17:21Z,42.805,6.029,13.2963,4.59958,2469.947,2019-9-16T10:17:45Z
2019-09-16T08:20:25Z,42.805,6.029,13.2958,4.59968,2469.947,2019-9-16T10:20:48Z
2019-09-16T08:23:28Z,42.805,6.029,13.2957,4.59961,2469.937,2019-9-16T10:23:51Z
2019-09-16T08:26:31Z,42.805,6.029,13.2961,4.59971,2469.947,2019-9-16T10:26:54Z
2019-09-16T08:29:34Z,42.805,6.029,13.2959,4.59961,2469.96,2019-9-16T10:29:57Z
2019-09-16T08:32:37Z,42.805,6.029,13.2958,4.59975,2469.947,2019-9-16T10:33:01Z
2019-09-16T08:35:41Z,42.805,6.029,13.2959,4.59972,2469.97,2019-9-16T10:36:04Z
2019-09-16T08:38:44Z,42.805,6.029,13.2958,4.59963,2469.947,2019-9-16T10:39:07Z
2019-09-16T08:41:47Z,42.805,6.029,13.2960,4.59973,2469.97,2019-9-16T10:42:10Z
2019-09-16T08:44:50Z,42.805,6.029,13.2961,4.59975,2469.97,2019-9-16T10:45:13Z
2019-09-16T08:47:53Z,42.805,6.029,13.2959,4.59964,2469.97,2019-9-16T10:48:17Z
2019-09-16T08:50:57Z,42.805,6.029,13.2961,4.59964,2469.923,2019-9-16T10:51:20Z
2019-09-16T08:54:00Z,42.805,6.029,13.2958,4.59964,2469.97,2019-9-16T10:54:23Z
2019-09-16T08:57:03Z,42.805,6.029,13.2961,4.59966,2469.97,2019-9-16T10:57:26Z
2019-09-16T09:00:06Z,42.805,6.029,13.2959,4.59968,2469.947,2019-9-16T11:00:29Z
2019-09-16T09:03:09Z,42.805,6.029,13.2959,4.59982,2469.97,2019-9-16T11:03:33Z
2019-09-16T09:06:13Z,42.805,6.029,13.2959,4.59991,2469.984,2019-9-16T11:06:36Z
2019-09-16T09:09:16Z,42.805,6.029,13.2953,4.60008,2469.96,2019-9-16T11:09:39Z
2019-09-16T09:12:19Z,42.805,6.029,13.2959,4.59985,2469.923,2019-9-16T11:12:42Z
2019-09-16T09:15:22Z,42.805,6.029,13.2991,4.59984,2469.97,2019-9-16T11:15:45Z
2019-09-16T09:18:26Z,42.805,6.029,13.2958,4.59969,2469.947,2019-9-16T11:18:49Z
2019-09-16T09:21:29Z,42.805,6.029,13.2958,4.59983,2469.937,2019-9-16T11:21:52Z
2019-09-16T09:24:32Z,42.805,6.029,13.2954,4.59983,2469.923,2019-9-16T11:24:55Z
2019-09-16T09:27:35Z,42.805,6.029,13.2960,4.59982,2469.947,2019-9-16T11:27:58Z
2019-09-16T09:30:38Z,42.805,6.029,13.2959,4.59988,2469.947,2019-9-16T11:31:02Z
2019-09-16T09:33:42Z,42.805,6.029,13.2962,4.60010,2469.947,2019-9-16T11:34:05Z
2019-09-16T09:36:45Z,42.805,6.029,13.3014,4.59981,2469.984,2019-9-16T11:37:08Z
2019-09-16T09:39:48Z,42.805,6.029,13.2976,4.59992,2469.947,2019-9-16T11:40:11Z
2019-09-16T09:42:51Z,42.805,6.029,13.3094,4.60003,2469.923,2019-9-16T11:43:15Z
2019-09-16T09:45:55Z,42.805,6.029,13.2962,4.60022,2469.96,2019-9-16T11:46:18Z
2019-09-16T09:48:58Z,42.805,6.029,13.2958,4.60000,2469.947,2019-9-16T11:49:21Z
2019-09-16T09:52:01Z,42.805,6.029,13.2964,4.60001,2469.937,2019-9-16T11:52:24Z
2019-09-16T09:55:04Z,42.805,6.029,13.2986,4.60006,2469.937,2019-9-16T11:55:27Z
2019-09-16T09:58:07Z,42.805,6.029,13.3037,4.59981,2469.937,2019-9-16T11:58:31Z
2019-09-16T10:01:11Z,42.805,6.029,13.3011,4.59979,2469.937,2019-9-16T12:01:34Z
2019-09-16T10:04:14Z,42.805,6.029,13.2970,4.59981,2469.914,2019-9-16T12:04:37Z
2019-09-16T10:07:17Z,42.805,6.029,13.2964,4.59970,2469.96,2019-9-16T12:07:40Z
2019-09-16T10:10:20Z,42.805,6.029,13.2964,4.59971,2469.914,2019-9-16T12:10:43Z
2019-09-16T10:13:23Z,42.805,6.029,13.2964,4.59967,2469.914,2019-9-16T12:13:47Z
2019-09-16T10:16:27Z,42.805,6.029,13.2961,4.59971,2469.9,2019-9-16T12:16:50Z
2019-09-16T10:19:30Z,42.805,6.029,13.2961,4.59969,2469.9,2019-9-16T12:19:53Z
2019-09-16T10:22:33Z,42.805,6.029,13.2959,4.59966,2469.9,2019-9-16T12:22:56Z
2019-09-16T10:25:36Z,42.805,6.029,13.2958,4.59973,2469.923,2019-9-16T12:25:59Z
2019-09-16T10:28:39Z,42.805,6.029,13.2957,4.59972,2469.937,2019-9-16T12:29:03Z
2019-09-16T10:31:43Z,42.805,6.029,13.2966,4.59963,2469.89,2019-9-16T12:32:06Z
2019-09-16T10:34:46Z,42.805,6.029,13.2961,4.59968,2469.876,2019-9-16T12:35:09Z
2019-09-16T10:37:49Z,42.805,6.029,13.2966,4.59965,2469.9,2019-9-16T12:38:12Z
2019-09-16T10:40:52Z,42.805,6.029,13.2959,4.59980,2469.914,2019-9-16T12:41:15Z
2019-09-16T10:43:55Z,42.805,6.029,13.2958,4.59963,2469.876,2019-9-16T12:44:19Z
2019-09-16T10:46:59Z,42.805,6.029,13.2957,4.59966,2469.876,2019-9-16T12:47:22Z
2019-09-16T10:50:02Z,42.805,6.029,13.2959,4.59964,2469.876,2019-9-16T12:50:25Z
2019-09-16T10:53:05Z,42.805,6.029,13.2962,4.59968,2469.867,2019-9-16T12:53:28Z
2019-09-16T10:56:08Z,42.805,6.029,13.2958,4.59965,2469.876,2019-9-16T12:56:31Z
2019-09-16T10:59:11Z,42.805,6.029,13.2958,4.59975,2469.89,2019-9-16T12:59:35Z
2019-09-16T11:02:15Z,42.805,6.029,13.2972,4.59966,2469.89,2019-9-16T13:02:38Z
2019-09-16T11:05:18Z,42.805,6.029,13.2966,4.59969,2469.876,2019-9-16T13:05:41Z
2019-09-16T11:08:21Z,42.805,6.029,13.2963,4.59967,2469.876,2019-9-16T13:08:44Z
2019-09-16T11:11:24Z,42.805,6.029,13.2966,4.59966,2469.867,2019-9-16T13:11:48Z
2019-09-16T11:14:28Z,42.805,6.029,13.2967,4.59971,2469.83,2019-9-16T13:14:51Z
2019-09-16T11:17:31Z,42.805,6.029,13.2972,4.59965,2469.867,2019-9-16T13:17:54Z
2019-09-16T11:20:34Z,42.805,6.029,13.2971,4.59964,2469.876,2019-9-16T13:20:57Z
2019-09-16T11:23:37Z,42.805,6.029,13.2971,4.59976,2469.844,2019-9-16T13:24:00Z
2019-09-16T11:26:40Z,42.805,6.029,13.2976,4.59975,2469.867,2019-9-16T13:27:04Z
2019-09-16T11:29:44Z,42.805,6.029,13.2978,4.59966,2469.876,2019-9-16T13:30:07Z
2019-09-16T11:32:47Z,42.805,6.029,13.2967,4.59973,2469.89,2019-9-16T13:33:10Z
2019-09-16T11:35:50Z,42.805,6.029,13.2975,4.59973,2469.876,2019-9-16T13:36:13Z
2019-09-16T11:38:53Z,42.805,6.029,13.2968,4.59968,2469.914,2019-9-16T13:39:16Z
2019-09-16T11:41:56Z,42.805,6.029,13.2964,4.59971,2469.853,2019-9-16T13:42:19Z
2019-09-16T11:44:59Z,42.805,6.029,13.2961,4.59973,2469.853,2019-9-16T13:45:23Z
2019-09-16T11:48:03Z,42.805,6.029,13.2960,4.59966,2469.867,2019-9-16T13:48:26Z
2019-09-16T11:51:06Z,42.805,6.029,13.2955,4.59963,2469.853,2019-9-16T13:51:29Z
2019-09-16T11:54:09Z,42.805,6.029,13.2961,4.59974,2469.89,2019-9-16T13:54:32Z
2019-09-16T11:57:12Z,42.805,6.029,13.2963,4.59963,2469.867,2019-9-16T13:57:35Z
2019-09-16T12:00:16Z,42.805,6.029,13.2958,4.59963,2469.844,2019-9-16T14:00:39Z
2019-09-16T12:03:19Z,42.805,6.029,13.2960,4.59962,2469.806,2019-9-16T14:03:42Z
2019-09-16T12:06:22Z,42.805,6.029,13.2957,4.59963,2469.83,2019-9-16T14:06:45Z
2019-09-16T12:09:25Z,42.805,6.029,13.2959,4.59963,2469.844,2019-9-16T14:09:48Z
2019-09-16T12:12:28Z,42.805,6.029,13.2957,4.59961,2469.783,2019-9-16T14:12:52Z
2019-09-16T12:15:32Z,42.805,6.029,13.2963,4.59962,2469.844,2019-9-16T14:15:55Z
2019-09-16T12:18:35Z,42.805,6.029,13.2959,4.59961,2469.797,2019-9-16T14:18:58Z
2019-09-16T12:21:38Z,42.805,6.029,13.2955,4.59961,2469.867,2019-9-16T14:22:01Z
2019-09-16T12:24:41Z,42.805,6.029,13.2960,4.59961,2469.821,2019-9-16T14:25:04Z
2019-09-16T12:27:45Z,42.805,6.029,13.2960,4.59959,2469.821,2019-9-16T14:28:08Z
2019-09-16T12:30:48Z,42.805,6.029,13.2956,4.59961,2469.821,2019-9-16T14:31:11Z
2019-09-16T12:33:51Z,42.805,6.029,13.2955,4.59967,2469.806,2019-9-16T14:34:14Z
2019-09-16T12:36:54Z,42.805,6.029,13.2959,4.59961,2469.83,2019-9-16T14:37:17Z
2019-09-16T12:39:57Z,42.805,6.029,13.2957,4.59960,2469.844,2019-9-16T14:40:21Z
2019-09-16T12:43:01Z,42.805,6.029,13.2958,4.59959,2469.797,2019-9-16T14:43:24Z
2019-09-16T12:46:04Z,42.805,6.029,13.2958,4.59958,2469.806,2019-9-16T14:46:27Z
2019-09-16T12:49:07Z,42.805,6.029,13.2961,4.59962,2469.821,2019-9-16T14:49:30Z
2019-09-16T12:52:10Z,42.805,6.029,13.2955,4.59961,2469.793,2019-9-16T14:52:33Z
2019-09-16T12:55:13Z,42.805,6.029,13.2958,4.59959,2469.783,2019-9-16T14:55:37Z
2019-09-16T12:58:17Z,42.805,6.029,13.2960,4.59956,2469.806,2019-9-16T14:58:40Z
2019-09-16T13:01:20Z,42.805,6.029,13.2956,4.59966,2469.797,2019-9-16T15:01:43Z
2019-09-16T13:04:23Z,42.805,6.029,13.2957,4.59958,2469.797,2019-9-16T15:04:46Z
2019-09-16T13:07:26Z,42.805,6.029,13.2958,4.59962,2469.83,2019-9-16T15:07:50Z
2019-09-16T13:10:30Z,42.805,6.029,13.2962,4.59958,2469.806,2019-9-16T15:10:53Z
2019-09-16T13:13:33Z,42.805,6.029,13.2958,4.59971,2469.797,2019-9-16T15:13:56Z
2019-09-16T13:16:36Z,42.805,6.029,13.2953,4.59960,2469.783,2019-9-16T15:16:59Z
2019-09-16T13:19:39Z,42.805,6.029,13.2954,4.59971,2469.76,2019-9-16T15:20:02Z
2019-09-16T13:22:42Z,42.805,6.029,13.2957,4.59960,2469.797,2019-9-16T15:23:06Z
2019-09-16T13:25:46Z,42.805,6.029,13.2957,4.59973,2469.806,2019-9-16T15:26:09Z
2019-09-16T13:28:49Z,42.805,6.029,13.2957,4.59961,2469.821,2019-9-16T15:29:12Z
2019-09-16T13:31:52Z,42.805,6.029,13.2954,4.59959,2469.783,2019-9-16T15:32:15Z
2019-09-16T13:34:55Z,42.805,6.029,13.2963,4.59965,2469.773,2019-9-16T15:35:18Z
2019-09-16T13:37:58Z,42.805,6.029,13.2957,4.59958,2469.783,2019-9-16T15:38:22Z
2019-09-16T13:41:02Z,42.805,6.029,13.2957,4.59958,2469.783,2019-9-16T15:41:25Z
2019-09-16T13:44:05Z,42.805,6.029,13.2956,4.59959,2469.806,2019-9-16T15:44:28Z
2019-09-16T13:47:08Z,42.805,6.029,13.2960,4.59968,2469.783,2019-9-16T15:47:31Z
2019-09-16T13:50:11Z,42.805,6.029,13.2960,4.59968,2469.783,2019-9-16T15:50:34Z
2019-09-16T13:53:15Z,42.805,6.029,13.2960,4.59964,2469.797,2019-9-16T15:53:38Z
2019-09-16T13:56:18Z,42.805,6.029,13.2959,4.59961,2469.783,2019-9-16T15:56:41Z
2019-09-16T13:59:21Z,42.805,6.029,13.2960,4.59958,2469.783,2019-9-16T15:59:44Z
2019-09-16T14:02:24Z,42.805,6.029,13.2958,4.59959,2469.783,2019-9-16T16:02:47Z
2019-09-16T14:05:27Z,42.805,6.029,13.2957,4.59958,2469.76,2019-9-16T16:05:50Z
2019-09-16T14:08:30Z,42.805,6.029,13.2956,4.59958,2469.76,2019-9-16T16:08:54Z
2019-09-16T14:11:34Z,42.805,6.029,13.2958,4.59961,2469.76,2019-9-16T16:11:57Z
2019-09-16T14:14:37Z,42.805,6.029,13.2957,4.59959,2469.76,2019-9-16T16:15:00Z
2019-09-16T14:17:40Z,42.805,6.029,13.2958,4.59958,2469.76,2019-9-16T16:18:03Z
2019-09-16T14:20:43Z,42.805,6.029,13.2959,4.59960,2469.76,2019-9-16T16:21:07Z
2019-09-16T14:23:47Z,42.805,6.029,13.2960,4.59961,2469.76,2019-9-16T16:24:10Z
2019-09-16T14:26:50Z,42.805,6.029,13.2956,4.59956,2469.76,2019-9-16T16:27:13Z
2019-09-16T14:29:53Z,42.805,6.029,13.2960,4.59957,2469.75,2019-9-16T16:30:16Z
2019-09-16T14:32:56Z,42.805,6.029,13.2953,4.59956,2469.773,2019-9-16T16:33:20Z
2019-09-16T14:36:00Z,42.805,6.029,13.2960,4.59956,2469.76,2019-9-16T16:36:23Z
2019-09-16T14:39:03Z,42.805,6.029,13.2960,4.59956,2469.76,2019-9-16T16:39:26Z
2019-09-16T14:42:06Z,42.805,6.029,13.2958,4.59957,2469.773,2019-9-16T16:42:29Z
2019-09-16T14:45:09Z,42.805,6.029,13.2961,4.59958,2469.76,2019-9-16T16:45:32Z
2019-09-16T14:48:12Z,42.805,6.029,13.2957,4.59968,2469.76,2019-9-16T16:48:35Z
2019-09-16T14:51:16Z,42.805,6.029,13.2957,4.59958,2469.737,2019-9-16T16:51:39Z
2019-09-16T14:54:19Z,42.805,6.029,13.2962,4.59960,2469.737,2019-9-16T16:54:42Z
2019-09-16T14:57:22Z,42.805,6.029,13.2961,4.59961,2469.797,2019-9-16T16:57:45Z
2019-09-16T15:00:25Z,42.805,6.029,13.2956,4.59962,2469.737,2019-9-16T17:00:48Z
2019-09-16T15:03:28Z,42.805,6.029,13.2961,4.59965,2469.76,2019-9-16T17:03:51Z
2019-09-16T15:06:32Z,42.805,6.029,13.2957,4.59962,2469.76,2019-9-16T17:06:55Z
2019-09-16T15:09:35Z,42.805,6.029,13.2961,4.59959,2469.737,2019-9-16T17:09:58Z
2019-09-16T15:12:38Z,42.805,6.029,13.2961,4.59956,2469.75,2019-9-16T17:13:01Z
2019-09-16T15:15:41Z,42.805,6.029,13.2958,4.59957,2469.737,2019-9-16T17:16:04Z